Home > Weather > Mayen > Past weeks

Flag for Germany Past Weather in Mayen, Rhineland-Palatinate, Germany — Yesterday and Last 2 Weeks

Now
63 °F

Mild.


Feels Like: 63 °F
Forecast: 58 / 69 °F
Wind: 5 mph from Northwest

Location: Buechel

Current Time: Jul 27, 2016 at 11:16:15 PM

Latest Report: Jul 27, 2016 at 10:20 PM


Visibility: 5 mi

Pressure: 30.09 "Hg

Humidity: 77%

Dew Point: 55 °F

Location of MayenLocation

Past Weather in Mayen — Graph

°F

Mayen Temperature Yesterday

Maximum temperature yesterday: 70 °F (at 4:20 PM)
Minimum temperature yesterday: 59 °F (at 11:20 PM)
Average temperature yesterday: 64 °F

High & Low Weather Summary for the Past Weeks

 TemperatureHumidityPressure
High88 °F (Jul 20, 4:20 PM)100% (Jul 13, 5:20 AM)30.33 "Hg (Jul 13, 5:20 AM)
Low45 °F (Jul 15, 5:20 AM)38% (Jul 20, 4:20 PM)29.92 "Hg (Jul 12, 9:20 PM)
Average65 °F76%30.13 "Hg
* Reported Jul 12 9:20 PM — Jul 27 9:20 PM, Mayen, Weather by CustomWeather, © 2016

Note: Actual official high and low records may vary slightly from our data, if they occured in-between our weather recording intervals... More about our weather records

Advertising

Mayen Weather History for the Previous 24 Hours

Scroll right to see more
 ConditionsComfort  
Time TempWeatherWind HumidityBarometerVisibility
9:20 PM
Wed, Jul 27
64 °FBroken clouds.7 mph73%30.07 "HgN/A
8:20 PM66 °FPartly sunny.5 mph68%30.07 "HgN/A
7:20 PM68 °FScattered clouds.7 mph64%30.07 "HgN/A
6:20 PM70 °FScattered clouds.9 mph60%30.04 "HgN/A
5:20 PM70 °FBroken clouds.8 mph57%30.07 "HgN/A
4:20 PM68 °FBroken clouds.7 mph56%30.07 "HgN/A
3:20 PM68 °FBroken clouds.8 mph56%30.07 "HgN/A
2:20 PM68 °FScattered clouds.10 mph60%30.07 "HgN/A
1:20 PM68 °FScattered clouds.10 mph60%30.09 "HgN/A
12:20 PM66 °FScattered clouds.10 mph64%30.09 "HgN/A
11:20 AM66 °FScattered clouds.8 mph68%30.09 "HgN/A
10:20 AM64 °FScattered clouds.6 mph78%30.09 "HgN/A
9:20 AM63 °FScattered clouds.3 mph83%30.09 "HgN/A
8:20 AM59 °FScattered clouds.5 mph88%30.09 "Hg5 mi
7:20 AM57 °FFog.3 mph94%30.09 "Hg4 mi
6:20 AM57 °FFog.No wind94%30.09 "Hg3 mi
5:20 AM57 °FFog.1 mph94%30.09 "Hg3 mi
5:02 AM57 °FFog.5 mph94%30.09 "Hg3 mi
4:20 AM55 °FCool.1 mph100%30.09 "Hg3 mi
3:20 AM57 °FCool.5 mph94%30.09 "Hg3 mi
2:20 AM57 °FCool.5 mph94%30.12 "Hg2 mi
1:20 AM57 °FCool.5 mph94%30.12 "Hg1 mi
12:20 AM59 °FCool.3 mph94%30.12 "Hg2 mi
11:20 PM
Tue, Jul 26
59 °FCool.3 mph94%30.15 "Hg3 mi
Weather by CustomWeather, © 2016

See weather overviewHow to use our weather pages